Wetbulb
56.73 56.75 56.60 56.41 56.59 56.27 56.30 56.34 56.56 56.83 57.22 57.49 57.93 58.15 58.63 59.01 58.71 55.65 47.38 52.47 55.14 63.42 63.46 52.31 50.94 52.39 51.39 50.48 51.67 48.58 42.04 40.33 41.54 43.66 52.13 58.02 56.57 61.52 64.48 61.73 63.80 64.80 64.57 65.95 66.65
56.10 56.21 55.99 55.80 55.79 55.97 55.84 56.08 56.25 56.56 56.83 57.21 57.44 57.75 58.38 58.88 54.23 50.08 58.21 63.86 64.65 67.13 53.25 49.94 48.93 49.40 47.51 47.93 48.78 46.05 40.33 43.66 46.41 47.21 53.42 57.00 59.06 60.56 60.24 60.42 61.91 62.85 66.68 67.44 66.82
55.50 55.56 55.20 55.10 55.19 55.66 55.41 55.62 55.86 56.12 56.75 56.68 56.85 57.55 58.46 58.13 49.26 50.57 67.15 65.09 66.37 66.21 52.78 51.89 50.14 47.42 43.63 45.75 47.01 44.46 43.28 48.41 49.30 51.26 56.09 57.38 58.68 59.58 57.04 56.55 61.47 61.22 63.79 64.57 64.57
55.04 55.02 54.80 54.74 54.86 54.83 55.08 55.47 55.63 55.91 55.97 56.18 56.65 58.04 58.68 55.10 38.98 55.53 69.13 69.29 68.49 57.59 51.95 49.33 46.96 43.47 42.90 43.20 46.25 43.11 47.32 47.27 48.65 51.10 55.00 57.49 60.06 58.00 57.61 58.69 63.68 64.24 65.25 64.75 63.43
54.48 54.41 54.23 53.99 54.23 54.79 55.10 54.99 55.22 55.45 55.33 55.88 56.85 58.52 55.55 49.02 48.08 54.39 68.70 69.28 62.39 54.33 50.83 47.93 46.26 45.89 45.35 44.95 46.13 44.58 47.22 47.82 49.00 47.36 51.12 59.70 58.92 58.07 57.80 61.51 63.73 64.46 64.29 63.51 64.42
53.92 53.78 53.60 53.50 53.75 54.60 54.85 54.85 55.10 55.24 55.05 55.89 57.55 58.92 51.00 42.52 53.29 59.81 58.67 55.67 54.26 51.42 50.38 48.84 49.62 50.44 47.58 46.06 44.49 47.94 46.33 48.40 48.85 47.56 48.64 56.20 56.54 58.01 58.57 61.83 62.15 62.77 62.23 62.74 63.60
54.01 53.89 53.63 53.94 54.29 54.55 54.61 54.55 54.26 54.69 55.39 56.75 59.21 56.80 52.04 46.54 56.02 58.73 54.52 50.68 52.82 52.11 50.30 50.73 51.02 50.04 49.37 47.22 48.16 48.66 46.51 47.87 46.86 47.61 46.44 56.15 53.94 55.33 59.57 60.44 60.23 61.71 62.17 62.22 63.13
53.85 53.52 53.35 53.87 54.14 54.34 54.53 54.30 54.22 55.01 56.30 57.77 59.90 54.95 47.14 54.52 55.50 54.08 55.29 56.29 53.30 52.92 52.08 52.83 53.54 50.32 47.60 49.22 49.58 46.78 43.89 40.97 46.56 47.83 49.63 47.49 41.75 53.43 59.68 59.23 59.08 61.13 61.95 62.52 63.03
53.46 52.81 52.84 53.39 53.79 54.04 53.60 53.37 54.44 56.48 57.29 59.80 53.71 51.95 45.08 58.28 56.15 56.20 55.12 54.56 54.70 53.69 52.86 55.83 51.75 49.35 49.03 44.53 42.28 42.70 39.55 41.98 45.31 47.25 47.58 46.00 43.48 50.75 59.60 59.17 58.68 59.63 61.04 62.53 63.33
52.88 52.42 52.46 52.75 53.31 53.27 52.77 53.14 54.28 56.45 58.35 59.42 57.37 48.73 49.72 51.28 55.62 55.90 55.42 56.17 54.53 53.03 52.06 50.86 48.21 45.70 44.21 41.87 37.07 39.30 39.78 41.59 42.69 47.99 45.75 44.78 44.95 50.79 58.57 58.60 58.11 58.17 59.34 62.36 63.12
52.47 52.27 52.33 52.46 52.61 52.27 50.26 49.11 46.73 48.07 51.54 49.44 49.49 50.02 52.49 54.91 58.26 54.42 55.46 53.91 54.79 50.22 45.35 47.94 43.78 41.09 44.12 45.17 45.68 45.01 43.45 42.89 46.37 49.19 46.14 43.93 46.55 47.53 54.98 56.80 57.04 60.98 60.99 61.91 62.30
51.71 52.36 52.38 52.10 51.92 51.81 48.22 49.14 48.99 48.41 42.82 50.79 52.53 52.94 54.84 57.26 54.20 57.09 55.05 50.02 50.45 45.84 46.53 44.96 41.28 46.41 48.82 48.79 47.37 46.16 44.01 44.00 46.70 49.13 45.86 45.52 45.58 47.43 50.52 55.30 60.04 61.16 60.49 60.59 60.04
51.86 51.98 52.09 51.86 50.79 49.09 46.38 49.19 51.12 50.02 42.85 48.03 49.94 49.45 50.58 53.41 52.53 54.82 52.37 49.71 48.71 46.23 44.44 42.01 45.13 49.69 49.13 47.55 46.45 45.18 43.21 44.12 44.65 46.47 45.73 45.55 44.16 46.31 57.26 59.62 60.59 62.04 61.89 61.13 59.94
51.75 51.65 51.56 51.10 47.36 44.80 47.60 52.47 52.17 49.21 39.72 46.35 48.61 49.85 49.98 52.74 51.81 57.16 54.77 50.40 47.89 46.91 46.59 43.69 47.84 48.04 47.54 47.38 47.54 41.92 47.64 47.99 46.86 43.45 38.66 44.46 36.55 43.12 51.73 56.35 58.20 58.05 59.57 59.55 59.96
51.55 51.69 51.27 50.47 43.18 43.48 49.31 50.48 50.89 49.58 31.43 51.32 49.53 52.94 50.87 50.38 51.31 52.18 54.96 51.39 46.78 47.68 47.22 45.29 45.61 46.22 46.02 47.28 48.88 45.83 49.33 47.59 47.35 42.28 39.53 41.49 37.78 41.59 52.47 52.07 56.07 56.38 56.38 58.41 59.40
51.35 51.10 50.66 46.04 42.06 46.01 48.65 47.99 46.83 39.26 31.97 48.12 50.01 47.42 46.43 50.02 51.60 50.47 50.46 51.47 50.73 47.32 47.55 46.81 50.19 48.38 47.99 50.09 49.53 50.41 48.61 45.19 43.18 40.20 35.50 39.81 39.01 38.32 41.95 52.46 55.96 57.52 57.06 58.31 62.09
50.83 50.51 48.26 47.01 41.26 45.04 46.63 45.30 35.94 32.32 46.42 46.75 46.12 47.22 45.63 46.33 48.28 49.66 46.55 43.69 42.51 39.09 41.02 45.15 46.47 48.67 50.74 46.52 47.74 46.41 41.01 34.68 34.39 34.34 34.58 41.46 39.90 41.25 45.82 56.40 59.00 58.52 59.46 60.54 59.57
49.74 48.92 46.51 47.65 45.04 45.04 45.34 39.35 29.91 40.84 42.28 48.85 46.66 46.42 45.57 47.19 46.97 47.80 45.53 41.77 43.52 43.67 40.37 39.47 39.47 46.92 50.21 46.78 45.40 43.65 42.06 35.48 30.84 31.92 35.70 42.71 38.79 43.96 53.88 56.90 60.88 59.74 58.20 57.63 57.08
48.39 40.93 41.45 44.94 48.14 45.80 41.11 31.23 33.01 39.86 45.68 45.00 44.98 43.00 43.82 47.35 45.60 46.05 44.47 44.28 44.86 45.09 41.33 39.23 40.93 48.85 49.35 49.06 47.56 43.73 40.62 43.82 38.82 37.78 35.86 38.49 45.78 53.60 54.17 54.77 56.07 55.42 55.88 55.28 55.74
40.82 38.76 40.77 47.14 49.46 44.87 37.61 34.95 38.23 45.96 46.13 45.67 39.66 43.42 38.77 41.76 42.18 43.10 43.06 47.38 45.99 47.32 46.72 43.51 39.61 47.21 48.57 49.37 48.15 45.41 47.05 39.68 37.14 31.65 30.18 37.19 40.60 44.94 50.08 51.55 53.54 53.83 53.87 54.74 55.19
39.44 39.83 47.15 49.04 49.04 41.27 32.86 35.05 41.63 46.97 47.58 44.69 42.04 41.15 41.61 41.23 41.88 40.93 44.36 47.80 50.44 48.38 47.06 46.25 41.34 43.96 45.38 44.09 43.86 43.15 40.98 41.69 40.44 38.34 33.53 32.22 37.10 47.92 52.80 53.33 53.42 54.16 54.46 54.78 55.05
37.22 34.25 47.44 49.52 39.18 37.54 35.00 40.73 44.45 45.57 47.16 45.70 45.49 43.43 41.70 42.63 40.66 41.36 43.56 46.53 51.14 48.33 44.08 45.14 41.64 40.09 42.97 47.43 49.18 46.29 44.67 42.27 37.29 36.52 38.60 37.26 37.96 51.14 54.83 54.81 55.31 54.43 55.04 55.47 55.99
34.65 37.15 46.75 47.78 35.04 35.75 40.63 43.97 45.81 45.10 45.29 45.16 44.14 45.67 45.25 41.29 38.22 43.02 45.62 49.87 48.98 47.60 44.28 45.40 39.43 36.88 39.19 43.20 45.85 44.87 45.46 44.65 41.40 39.99 37.52 36.34 38.64 51.20 53.56 53.04 54.02 54.43 54.99 55.49 55.30
35.32 33.80 38.93 42.59 41.48 38.77 37.34 39.51 40.37 46.55 45.15 46.19 44.99 45.58 43.34 41.16 41.44 40.43 42.59 47.85 49.02 48.24 55.58 51.53 42.25 40.13 39.06 41.86 43.69 43.78 45.89 45.56 43.61 37.23 38.57 40.92 43.22 48.43 50.86 52.58 54.25 54.95 55.49 55.63 55.78
35.53 34.14 37.48 33.88 37.71 38.18 38.18 40.56 39.79 40.46 45.95 46.05 43.09 43.52 41.09 38.15 39.22 39.19 42.42 44.54 47.71 52.11 49.70 47.29 40.00 41.79 45.47 46.60 46.37 46.39 47.30 46.72 42.86 42.94 40.62 43.32 44.06 45.95 51.82 53.10 54.47 55.48 56.07 55.72 55.86
33.61 34.96 37.67 36.63 38.72 37.75 38.33 37.78 39.69 41.75 41.27 40.35 40.41 42.29 41.77 38.91 41.20 40.14 42.28 41.81 41.91 45.76 44.91 46.56 39.33 42.30 44.14 46.20 46.55 45.26 47.27 47.10 46.62 45.62 45.60 45.57 44.49 51.28 54.00 55.69 54.81 55.59 56.07 55.99 56.58
41.96 40.44 36.99 37.03 36.66 35.45 35.37 37.84 38.61 40.23 41.33 43.77 42.99 41.32 40.33 43.46 45.93 46.68 46.47 46.09 45.50 43.92 42.43 41.91 41.48 39.39 37.47 44.65 45.16 41.36 46.28 46.14 46.34 47.50 47.05 43.63 46.69 52.72 54.00 54.55 54.96 55.69 56.66 56.11 56.81
MSLP
1022.48 1022.06 1021.65 1021.23 1020.88 1020.49 1020.08 1019.68 1019.26 1018.92 1018.54 1018.07 1017.59 1017.31 1016.86 1016.40 1015.82 1015.78 1014.83 1012.06 1011.82 1011.48 1011.84 1011.71 1011.77 1011.87 1012.06 1012.25 1012.00 1012.33 1013.53 1013.69 1013.22 1012.19 1012.65 1012.53 1012.90 1012.96 1012.82 1013.03 1013.15 1013.42 1012.20 1012.24 1012.11
1022.50 1022.08 1021.64 1021.19 1020.71 1020.24 1019.90 1019.53 1019.06 1018.65 1018.28 1017.89 1017.46 1017.23 1016.82 1016.43 1015.94 1014.30 1010.76 1010.56 1010.85 1011.29 1011.93 1012.01 1012.01 1012.20 1012.34 1012.01 1011.78 1012.12 1013.05 1012.41 1011.38 1010.88 1012.19 1012.34 1012.59 1013.13 1013.25 1012.46 1011.78 1011.49 1012.29 1012.77 1012.46
1022.57 1022.06 1021.53 1021.09 1020.58 1020.12 1019.77 1019.39 1018.85 1018.36 1017.95 1017.65 1017.33 1017.02 1016.63 1016.37 1015.40 1011.43 1009.48 1009.76 1010.33 1010.98 1011.13 1011.45 1011.86 1012.22 1012.26 1011.90 1011.68 1011.58 1011.91 1010.74 1010.01 1010.15 1010.95 1011.68 1012.63 1012.62 1012.37 1012.26 1010.43 1010.46 1010.87 1012.62 1012.92
1022.55 1022.07 1021.57 1021.10 1020.54 1020.04 1019.61 1019.14 1018.62 1018.12 1017.72 1017.39 1017.16 1016.83 1016.42 1016.08 1013.94 1009.74 1009.13 1009.17 1010.14 1010.74 1011.17 1011.37 1011.67 1012.13 1012.01 1011.69 1011.00 1011.34 1010.50 1009.93 1009.22 1009.35 1010.03 1010.87 1011.52 1011.67 1011.00 1010.48 1009.78 1010.20 1010.21 1010.94 1012.31
1022.51 1021.98 1021.50 1021.00 1020.46 1019.94 1019.39 1018.81 1018.34 1017.86 1017.49 1017.20 1016.99 1016.68 1016.37 1015.42 1012.53 1009.31 1009.34 1009.52 1010.25 1010.80 1011.18 1011.52 1011.72 1011.84 1011.69 1010.99 1010.75 1010.59 1009.76 1009.23 1008.60 1008.76 1008.74 1009.82 1010.63 1010.71 1010.70 1010.06 1010.21 1010.55 1011.11 1010.50 1011.31
1022.37 1021.87 1021.35 1020.79 1020.23 1019.69 1019.02 1018.37 1017.85 1017.42 1017.11 1016.85 1016.69 1016.57 1016.15 1014.30 1009.73 1009.27 1009.52 1010.18 1010.07 1010.66 1010.90 1011.32 1010.86 1011.11 1011.23 1010.78 1010.72 1009.83 1009.59 1009.01 1008.31 1008.02 1008.46 1009.38 1010.32 1010.49 1010.49 1010.29 1010.29 1010.64 1010.67 1010.83 1010.68
1022.52 1021.96 1021.32 1020.61 1019.95 1019.28 1018.54 1017.81 1017.22 1016.85 1016.61 1016.35 1016.32 1016.32 1015.45 1011.78 1009.56 1009.58 1010.02 1010.27 1009.72 1010.07 1010.37 1010.15 1010.32 1011.24 1010.82 1010.60 1009.84 1009.58 1009.43 1008.70 1008.06 1007.61 1007.99 1008.99 1010.75 1009.78 1009.48 1010.00 1009.99 1010.01 1009.87 1009.73 1010.07
1022.44 1021.88 1021.23 1020.47 1019.65 1018.92 1018.07 1017.22 1016.54 1016.13 1015.98 1015.89 1016.01 1015.89 1013.91 1010.15 1009.65 1009.86 1009.62 1009.84 1009.82 1009.48 1009.61 1009.34 1010.10 1010.78 1010.99 1010.18 1009.85 1009.97 1009.63 1009.29 1007.82 1007.36 1006.98 1008.01 1008.81 1008.64 1009.07 1009.55 1009.94 1009.79 1009.75 1010.20 1011.45
1022.39 1021.80 1021.08 1020.27 1019.41 1018.54 1017.48 1016.44 1015.67 1015.32 1015.58 1015.71 1015.93 1015.40 1012.76 1009.48 1009.35 1008.36 1008.96 1009.34 1009.25 1009.26 1009.24 1009.13 1009.92 1010.38 1010.31 1010.69 1011.23 1010.90 1010.41 1009.78 1008.48 1007.62 1007.68 1007.87 1008.04 1007.77 1008.41 1009.06 1009.39 1009.75 1010.54 1011.51 1012.29
1022.19 1021.54 1020.76 1019.89 1019.10 1018.19 1016.89 1015.51 1015.02 1015.16 1015.51 1015.47 1015.03 1014.88 1011.35 1009.17 1008.10 1007.55 1007.99 1008.51 1009.12 1009.07 1009.57 1009.70 1010.13 1010.45 1010.99 1011.48 1011.94 1011.55 1011.10 1009.98 1009.17 1007.52 1007.59 1007.38 1007.29 1008.08 1007.97 1008.64 1008.68 1010.23 1010.60 1011.32 1011.87
1022.18 1021.39 1020.50 1019.54 1018.63 1017.94 1016.83 1015.47 1015.37 1015.23 1014.96 1014.23 1013.27 1012.01 1010.01 1008.88 1007.51 1007.36 1007.36 1007.93 1008.64 1009.26 1009.98 1009.87 1010.54 1010.87 1011.11 1011.34 1011.29 1011.23 1010.94 1010.20 1008.97 1007.84 1007.46 1006.28 1006.64 1006.59 1007.36 1008.81 1009.89 1010.30 1010.40 1010.97 1011.95
1022.24 1021.36 1020.34 1019.20 1018.10 1017.52 1017.41 1016.63 1015.86 1015.56 1013.59 1012.19 1011.54 1010.84 1009.49 1009.68 1009.26 1007.43 1007.08 1008.04 1008.66 1009.47 1009.99 1010.48 1010.37 1010.36 1010.57 1010.73 1011.04 1011.01 1010.83 1009.78 1008.56 1007.64 1007.16 1006.87 1006.92 1006.66 1007.04 1007.97 1008.88 1010.22 1011.17 1011.64 1012.15
1022.23 1021.41 1020.33 1018.90 1017.58 1017.08 1017.26 1016.02 1015.13 1014.40 1013.92 1010.81 1009.52 1008.86 1008.51 1008.74 1008.77 1007.46 1007.23 1007.64 1008.50 1009.48 1009.93 1010.26 1009.81 1009.79 1010.23 1010.19 1010.50 1010.20 1010.08 1009.14 1008.57 1007.60 1007.27 1007.34 1007.84 1007.69 1008.71 1009.00 1009.81 1010.78 1011.26 1012.18 1011.62
1022.28 1021.62 1020.69 1019.20 1017.67 1018.45 1016.86 1015.50 1014.81 1014.59 1014.05 1010.12 1008.44 1007.15 1007.38 1007.90 1007.57 1006.69 1006.88 1007.37 1008.40 1009.04 1009.91 1009.89 1009.27 1009.47 1009.52 1009.43 1009.56 1009.45 1008.62 1008.47 1008.27 1008.76 1008.82 1008.57 1009.65 1008.84 1010.25 1010.54 1011.08 1011.66 1012.43 1012.70 1013.10
1022.18 1021.63 1021.05 1020.72 1020.14 1018.98 1016.68 1015.75 1014.96 1014.64 1013.17 1008.27 1006.98 1005.86 1006.34 1006.92 1006.46 1005.90 1005.97 1006.77 1007.81 1008.72 1009.50 1008.94 1008.74 1008.81 1008.87 1008.44 1008.29 1008.48 1008.01 1008.31 1008.41 1009.28 1009.76 1009.95 1010.30 1009.48 1010.33 1011.62 1012.02 1012.64 1013.31 1013.21 1013.26
1021.91 1021.39 1021.06 1020.48 1020.39 1017.81 1016.85 1015.95 1015.44 1015.10 1011.81 1007.91 1006.21 1006.21 1006.91 1006.87 1006.47 1006.10 1006.21 1006.76 1007.55 1008.61 1008.83 1008.89 1008.26 1008.27 1007.69 1007.32 1007.56 1007.63 1007.86 1008.65 1009.61 1010.31 1010.54 1010.19 1010.66 1010.31 1009.98 1010.62 1011.97 1012.83 1013.40 1013.80 1013.67
1021.54 1020.94 1020.93 1020.51 1018.52 1017.17 1016.95 1016.53 1016.39 1014.83 1010.83 1008.81 1007.85 1007.35 1006.60 1006.92 1007.25 1007.02 1007.29 1007.59 1008.27 1008.99 1009.19 1008.93 1008.18 1007.76 1007.62 1007.55 1007.20 1007.63 1008.97 1010.22 1011.51 1011.92 1011.28 1010.51 1010.27 1009.61 1008.66 1009.41 1010.06 1011.87 1013.44 1014.30 1014.51
1020.90 1020.05 1019.07 1018.27 1017.53 1017.84 1017.62 1017.48 1016.45 1013.66 1011.46 1009.52 1008.94 1007.49 1007.42 1007.15 1007.25 1007.13 1007.72 1008.31 1008.45 1008.78 1009.36 1009.38 1008.60 1007.25 1006.83 1006.98 1007.14 1007.81 1008.80 1010.42 1011.94 1012.79 1011.71 1010.62 1010.05 1009.38 1008.41 1007.83 1009.26 1011.21 1012.71 1013.84 1014.53
1020.56 1019.58 1018.83 1016.21 1017.00 1017.65 1018.11 1017.96 1015.86 1013.70 1011.78 1010.91 1009.64 1008.66 1008.08 1007.70 1008.23 1007.38 1007.52 1007.68 1007.91 1008.28 1008.93 1008.83 1008.03 1006.78 1006.38 1006.34 1006.96 1007.60 1008.34 1009.02 1011.02 1012.25 1012.16 1010.96 1010.10 1009.87 1009.96 1010.19 1010.97 1012.21 1013.45 1014.27 1014.55
1021.39 1020.40 1018.20 1015.63 1016.26 1017.31 1018.07 1017.33 1015.45 1013.41 1012.58 1011.75 1011.28 1010.28 1010.00 1009.79 1009.42 1008.79 1008.01 1007.04 1006.88 1006.86 1007.29 1007.98 1007.98 1006.95 1006.14 1006.39 1006.30 1006.77 1007.09 1009.39 1011.28 1012.42 1012.69 1011.06 1010.27 1010.08 1010.51 1010.83 1011.80 1012.63 1013.28 1014.07 1014.70
1021.31 1019.92 1015.42 1015.23 1015.96 1017.20 1017.86 1016.74 1014.95 1013.25 1013.09 1012.53 1011.95 1011.63 1011.28 1010.95 1010.19 1009.66 1008.46 1007.42 1007.11 1007.31 1007.51 1007.26 1008.03 1006.84 1006.59 1006.37 1006.52 1006.82 1007.33 1008.66 1010.14 1011.37 1012.08 1011.30 1010.15 1008.07 1008.44 1009.21 1009.96 1011.29 1012.20 1013.22 1014.55
1021.29 1019.82 1015.65 1015.58 1016.66 1017.20 1017.23 1016.12 1015.04 1013.96 1013.25 1013.26 1012.48 1012.37 1012.07 1011.73 1010.89 1010.22 1008.82 1008.02 1007.33 1007.94 1008.02 1007.48 1007.72 1007.50 1006.51 1005.63 1005.65 1006.25 1006.99 1007.96 1009.55 1010.88 1011.16 1010.64 1008.95 1007.35 1007.46 1008.35 1009.10 1010.60 1012.21 1013.40 1014.19
1022.19 1019.98 1015.79 1015.57 1016.69 1017.36 1016.80 1015.99 1015.19 1014.47 1013.77 1013.14 1012.83 1012.65 1012.44 1012.08 1011.62 1009.90 1008.81 1007.93 1007.69 1008.03 1008.30 1008.62 1008.20 1008.02 1006.61 1005.85 1005.41 1005.61 1005.89 1006.63 1007.88 1008.87 1009.65 1010.09 1008.42 1007.66 1007.59 1008.70 1009.75 1010.50 1011.87 1012.94 1013.51
1022.64 1020.87 1018.00 1016.93 1016.89 1017.15 1017.12 1016.40 1015.47 1014.24 1013.65 1013.30 1013.03 1012.84 1012.64 1012.09 1011.57 1010.30 1009.30 1008.38 1008.03 1007.99 1008.03 1008.21 1008.01 1007.53 1006.23 1005.23 1005.08 1005.13 1005.04 1005.41 1006.46 1008.08 1008.51 1008.31 1008.07 1007.70 1008.11 1008.38 1009.45 1010.62 1011.11 1011.78 1012.58
1022.88 1021.27 1019.83 1018.93 1018.12 1017.65 1017.31 1016.89 1015.87 1014.94 1013.89 1013.58 1013.24 1013.64 1014.23 1013.73 1012.36 1011.12 1010.22 1008.59 1007.92 1007.70 1007.90 1008.48 1008.17 1007.20 1005.40 1004.51 1004.09 1004.04 1004.36 1004.79 1005.65 1005.79 1006.85 1006.92 1007.43 1006.99 1007.39 1007.74 1008.17 1009.05 1010.60 1011.47 1012.40
1023.01 1021.96 1020.91 1019.75 1018.97 1017.98 1017.53 1016.87 1016.30 1015.47 1014.80 1014.20 1014.26 1014.41 1014.76 1014.81 1014.35 1013.46 1012.76 1012.00 1010.38 1008.69 1007.93 1008.27 1008.05 1007.50 1006.16 1004.21 1003.63 1003.47 1003.46 1003.55 1004.16 1004.83 1005.48 1005.54 1006.18 1005.95 1007.03 1008.18 1009.03 1009.32 1010.25 1011.09 1011.90
1022.36 1021.94 1021.67 1020.17 1019.34 1018.60 1017.73 1017.23 1016.80 1016.30 1015.09 1014.79 1014.93 1015.05 1014.88 1014.81 1014.66 1013.86 1012.80 1012.24 1010.93 1010.22 1009.15 1008.53 1008.16 1008.09 1007.27 1005.94 1003.86 1003.56 1001.98 1002.63 1003.19 1003.56 1004.31 1005.04 1005.39 1006.27 1007.73 1008.14 1008.61 1009.44 1009.91 1010.74 1011.74
Wind_Speed
17 17 18 18 17 17 18 18 18 17 17 17 15 15 14 14 14 3 8 14 9 8 3 6 2 3 2 3 4 3 4 4 6 2 6 8 7 7 5 4 6 6 8 8 11
18 18 18 19 19 18 19 19 19 18 17 16 15 14 13 11 3 9 15 15 17 4 4 5 5 4 3 3 1 5 4 7 7 4 10 11 13 13 5 8 4 14 10 8 8
18 18 19 20 20 18 19 19 19 19 18 17 15 14 12 7 5 10 2 19 13 13 4 5 1 1 2 1 4 3 6 9 14 10 15 17 8 8 12 2 18 20 19 7 3
19 19 20 21 21 21 20 20 20 19 19 17 14 12 10 3 4 4 5 9 11 9 3 2 0 3 3 3 5 3 10 7 12 6 7 15 10 5 6 11 20 12 18 14 5
19 20 21 21 22 21 20 20 20 19 17 15 12 8 4 2 14 6 6 6 9 6 7 5 2 4 3 4 3 6 8 8 11 7 8 18 16 10 10 10 19 13 10 13 10
20 21 22 22 22 21 20 20 19 18 16 14 9 2 1 4 8 6 8 6 6 8 7 8 9 8 6 4 3 7 5 10 9 12 7 13 6 7 6 8 13 11 12 12 11
19 20 23 23 23 23 22 21 21 19 17 11 7 4 2 17 3 7 3 3 7 7 6 9 4 1 4 8 5 5 6 9 6 5 3 14 3 11 12 11 12 13 17 19 11
20 21 23 24 24 24 24 24 23 21 12 7 5 3 10 6 8 11 6 7 6 7 8 7 7 5 5 7 9 6 3 4 8 3 8 9 12 15 18 13 14 14 14 15 10
20 22 24 25 25 26 26 27 24 12 4 7 3 2 12 11 4 12 10 9 7 6 7 9 2 6 4 4 7 6 4 6 11 2 4 5 11 5 20 18 16 13 5 10 10
22 23 24 26 26 26 28 24 9 2 3 5 5 3 6 5 5 5 9 10 6 4 5 3 2 1 4 5 6 5 3 6 7 12 5 10 13 9 22 20 16 7 8 16 14
23 24 26 27 27 25 16 5 6 4 1 7 6 7 9 6 6 4 6 6 5 4 6 5 2 7 9 7 7 5 5 9 14 16 8 9 13 11 18 12 7 9 7 16 16
23 25 27 29 30 27 1 4 3 9 10 11 17 20 23 2 8 10 6 6 6 7 4 2 8 10 8 7 6 7 8 17 11 6 4 5 10 4 7 8 18 16 10 14 9
22 24 27 31 34 4 4 4 8 9 4 9 10 10 11 11 10 10 10 7 5 5 6 9 10 7 11 10 7 10 6 9 8 5 2 3 7 5 8 17 14 9 9 10 17
21 22 25 34 6 7 6 12 15 3 4 9 6 9 4 6 6 10 9 8 4 10 5 8 11 12 9 12 8 8 8 9 5 6 4 5 5 7 6 9 9 12 14 12 11
21 21 20 17 6 5 7 14 13 5 4 2 4 3 8 12 4 6 4 5 9 6 6 9 3 7 8 15 9 12 8 5 2 3 2 2 5 9 13 4 8 6 5 9 11
21 21 22 5 2 9 11 13 3 6 8 7 7 7 8 4 4 6 6 4 7 5 5 8 4 5 10 16 9 9 2 8 6 4 2 5 7 7 6 11 7 8 10 11 13
22 24 17 4 6 2 8 5 6 3 5 4 6 6 5 8 6 1 2 4 7 5 11 7 11 6 6 8 5 4 7 4 6 6 8 4 3 10 3 19 20 18 15 11 12
24 27 6 8 5 2 4 6 3 5 7 6 9 10 9 6 10 7 7 6 6 4 4 7 12 11 8 9 11 8 11 8 7 4 8 4 3 8 10 15 23 19 17 14 11
22 5 5 6 10 3 6 3 8 6 4 7 8 5 7 6 10 10 12 13 11 12 11 5 8 7 6 4 9 5 4 10 7 1 2 4 1 5 7 14 17 16 15 13 13
4 4 6 2 10 4 6 5 5 4 8 5 1 3 6 8 7 8 4 5 9 14 10 9 10 13 16 3 6 6 6 4 4 4 5 6 3 6 7 14 16 16 15 13 11
2 4 6 8 5 6 4 7 4 11 9 7 5 7 4 7 1 3 6 10 1 6 6 14 7 16 5 6 10 5 1 5 6 6 8 4 7 8 17 21 24 21 19 17 15
2 2 3 3 4 2 3 4 4 6 14 8 4 6 6 4 7 4 7 5 7 4 5 10 7 12 20 13 7 8 8 8 7 6 3 4 9 3 15 16 18 16 16 16 16
2 4 6 5 3 2 5 6 7 11 9 4 5 8 11 7 5 6 2 1 7 2 5 7 3 6 9 9 2 7 7 8 4 3 9 6 9 3 8 4 8 21 19 18 19
2 3 5 4 1 6 2 5 4 7 10 6 6 6 5 8 7 9 11 7 8 9 4 4 7 10 17 16 6 5 5 9 9 5 6 8 7 5 6 13 20 19 20 21 19
0 5 1 4 2 3 1 4 9 7 2 3 4 6 6 6 8 6 7 16 9 4 2 1 6 5 18 19 15 12 8 6 5 7 9 9 10 10 13 17 24 24 20 20 16
1 2 5 2 4 1 3 3 4 4 2 8 2 9 4 4 6 9 10 5 6 8 2 1 5 8 13 15 18 14 11 10 5 5 6 5 8 4 7 12 15 22 21 19 15
2 3 3 4 3 1 4 3 8 10 6 3 3 3 7 5 13 15 17 15 17 14 10 2 1 4 7 12 7 7 19 10 5 6 8 8 9 10 8 16 20 19 18 16 14
Wind_Direction
4 0 356 353 349 347 345 341 338 336 334 332 334 328 321 317 307 150 238 219 192 214 76 324 349 276 56 247 210 114 66 276 255 230 174 180 148 172 173 154 168 196 270 163 158
0 357 353 349 345 344 341 338 335 333 332 331 330 323 316 319 286 247 230 214 215 163 176 221 279 13 315 242 259 111 121 240 212 282 164 187 158 154 178 206 91 52 42 157 159
358 354 350 346 342 340 336 333 332 330 330 329 327 319 313 319 314 250 234 211 203 160 181 170 177 48 215 113 246 210 188 246 266 241 146 174 167 175 154 35 143 173 164 214 174
354 351 347 342 339 335 331 329 327 326 327 325 323 313 314 264 274 251 2 204 164 154 113 271 316 186 230 211 228 235 237 227 276 223 134 158 155 168 203 192 185 192 171 150 189
351 348 344 339 336 330 325 324 321 319 320 319 314 305 304 348 250 270 61 117 134 138 187 197 217 166 243 223 341 190 271 277 268 254 222 144 183 190 209 193 200 205 236 173 170
348 344 339 336 331 326 322 319 313 312 314 312 298 255 165 263 252 191 128 136 142 159 193 156 217 188 266 274 139 248 276 268 288 277 159 146 173 146 236 191 197 203 213 207 163
344 339 335 331 328 325 321 315 311 308 308 299 272 215 234 236 166 79 133 239 174 176 195 219 201 97 4 314 247 259 336 327 276 273 92 113 80 236 176 182 200 217 213 200 171
342 338 333 329 327 324 319 313 307 304 298 271 193 214 248 246 259 281 208 274 233 206 206 230 169 230 190 245 350 344 43 333 281 306 279 130 250 234 182 174 212 222 210 186 74
341 337 332 329 327 324 318 312 306 298 205 138 137 182 267 300 192 232 171 207 221 225 237 258 139 215 306 73 2 356 262 307 314 333 269 150 260 148 175 187 206 218 248 120 121
340 335 332 329 327 325 321 308 283 8 162 197 257 348 271 273 249 208 172 176 195 208 322 230 90 70 19 80 222 253 336 298 273 286 218 240 239 146 185 191 201 159 171 152 156
340 336 333 329 327 325 336 360 11 9 176 214 211 254 286 335 291 242 203 150 171 112 194 279 98 230 239 220 212 243 256 277 287 283 271 230 217 228 196 201 171 151 159 163 158
338 335 333 329 324 323 126 21 261 262 296 241 242 240 258 315 309 298 157 153 143 194 164 332 239 230 232 244 250 263 269 278 279 255 7 1 268 265 124 183 154 146 139 150 142
335 335 335 329 321 354 292 245 306 347 294 278 217 234 227 161 219 266 170 174 175 166 191 191 236 201 234 262 255 258 220 257 243 326 334 55 337 310 44 107 119 121 138 168 157
332 334 338 334 36 330 294 322 332 333 360 276 221 246 148 167 269 223 204 144 207 200 199 224 242 246 247 249 234 267 227 254 335 43 284 82 271 310 91 83 118 148 168 161 152
328 331 336 334 286 318 286 332 317 57 342 271 183 144 166 159 205 237 184 114 194 185 153 238 219 224 243 246 251 249 265 252 318 98 36 52 96 267 130 125 159 164 173 157 147
325 326 333 339 282 245 311 302 40 50 259 309 156 171 121 223 278 5 141 93 164 196 240 226 263 212 236 253 229 260 213 32 37 55 351 249 139 277 188 174 171 169 169 162 144
321 317 315 257 237 328 338 26 51 161 316 343 358 340 182 167 238 206 171 183 178 178 242 296 278 274 253 285 292 174 63 348 343 352 243 8 17 235 225 169 170 164 160 163 148
319 317 253 212 224 266 16 52 162 245 276 331 339 311 192 159 217 214 184 225 231 148 145 207 274 260 241 192 229 202 153 156 210 222 270 334 264 280 303 168 151 150 153 150 145
323 327 283 250 192 120 80 115 205 221 279 9 340 356 344 11 345 190 194 205 210 181 201 184 254 263 251 250 150 225 151 188 146 41 6 232 141 32 62 102 129 139 151 160 157
313 332 266 252 143 90 89 215 240 293 17 350 320 307 358 352 331 29 294 229 210 189 175 227 261 259 268 10 290 189 176 93 9 205 260 275 215 202 170 148 152 161 164 162 155
20 350 263 147 105 55 167 222 283 305 6 341 347 321 333 320 262 312 262 319 63 1 239 208 160 255 312 180 237 315 300 63 125 139 188 262 263 215 181 175 171 173 169 157 148
7 344 270 16 89 200 177 202 308 282 315 296 285 264 248 326 290 290 229 183 345 17 267 222 195 233 241 232 186 183 232 180 146 229 204 185 267 235 176 179 175 155 139 139 143
357 267 301 108 195 260 291 283 277 276 274 293 307 313 293 269 291 227 260 318 318 46 32 325 294 253 292 303 136 187 198 200 121 83 198 188 261 82 146 125 119 137 141 144 147
17 333 311 32 127 159 275 280 273 255 255 254 286 306 310 271 214 270 295 298 313 290 302 246 216 200 230 220 172 203 221 206 164 136 193 221 230 236 164 149 145 151 152 154 159
268 246 225 311 28 347 62 304 302 307 267 334 303 54 59 315 310 293 306 322 311 256 118 101 259 262 235 223 230 223 217 184 221 207 162 220 199 218 187 167 164 157 154 155 164
250 6 340 283 282 36 231 211 255 290 298 294 67 332 50 199 233 309 336 7 274 311 232 228 269 346 275 214 220 227 212 213 197 188 243 223 238 224 124 131 150 158 157 162 170
312 327 112 281 305 98 212 350 337 322 274 6 54 8 330 327 314 283 268 255 248 266 277 247 240 33 279 306 190 245 231 210 208 195 176 200 204 147 139 161 163 163 167 169 164